STARLINK-1708 (46580 NORAD) Tracking and Keplerian Element Data

This shows tracking and keplerian element data for the satellite.

Feedback or suggestion? Click here.




ElementValue
Catalog46580
NameSTARLINK-1708
Epoch Orbit433
Epoch Day302.83335648
Epoch Year2020
RAAN332.1323
Inclination53.0002
Eccentricity0.0001096
Argument of Perigee59.4585
Mean Anonmoly356.8537
Mean Motion15.62752928
Decay Rate3.852E-05
L11 46580U 20070BA 20302.83335648 .00003852 00000-0 47878-4 0 9995
L22 46580 53.0002 332.1323 0001096 59.4585 356.8537 15.62752928 4338

Live tracking and technical data element details for STARLINK-1708 (NORAD 46580). STARLINK-1708 can be tracked NOW for your location showing map with azimuth and elevation plus other details from your city location.

Track the satellite on the map from your city or location and see movement details for azimuth, elevation, latitude, longitude, range, height, and movement on the map or in text.







IsCatalogInMostPopularTable: catalog: 46580, numindb: 3
Update: records affected: 1



GetName: 46580 STARLINK-1708

Hit Count: updated at: Fri, 30 Oct 2020 02:20:40 GMT